Regional Weather Roundup
Issued by NWS Charleston, SC

Current Version | Previous Version | Graphics & Text | Print | Product List | Glossary On
Versions: 1 2 3 4 5 6 7 8 9 10 11 12 13 14 15 16 17 18 19 20 21 22 23 24 25 26 27 28 29 30 31 32 33 34 35 36 37 38 39 40 41 42 43 44 45 46 47 48 49 50
000 ASUS42 KCHS 301411 RWRCHS REGIONAL WEATHER ROUNDUP NATIONAL WEATHER SERVICE CHARLESTON SC 1000 AM EDT MON MAR 30 2015 NOTE: "FAIR" INDICATES FEW OR NO CLOUDS BELOW 12,000 FEET WITH NO SIGNIFICANT WEATHER AND/OR OBSTRUCTIONS TO VISIBILITY. NOT ALL STATIONS ARE QUALITY CONTROLLED BY THE NATIONAL WEATHER SERVICE. USE DATA WITH CAUTION...ESPECIALLY DEWPOINT OBSERVATIONS. SCZ027-030-031-034>040-042>050-301500- ...SOUTHEAST SOUTH CAROLINA... CITY SKY/WX TMP DP RH WIND PRES REMARKS N CHARLESTON PTSUNNY 58 41 53 SW12 30.19F WATERFRONT PRK N/A 59 N/A N/A SW12G18 N/A MOUNT PLEASANT PTSUNNY 61 43 51 SW10G21 30.19F PINOPOLIS N/A 57 43 58 SW10 30.10S MONCKS CORNER CLOUDY 57 41 54 SW17 30.18S SUMMERVILLE CLOUDY 52 45 76 SW5 30.20F BEAUFORT MCAS PTSUNNY 57 43 59 SW12G20 30.21F BEAUFORT ARPT PTSUNNY 59 46 63 SW9G16 30.21F HILTON HEAD IS CLOUDY 61 45 55 SW13G22 30.23S WALTERBORO CLOUDY 52 39 62 SW14G20 30.20F ALLENDALE CLOUDY 52 41 66 NW8 30.23R ...SOUTHERN MIDLANDS AND PEE DEE... CITY SKY/WX TMP DP RH WIND PRES REMARKS GEORGETOWN NOT AVBL KINGSTREE NOT AVBL ORANGEBURG CLOUDY 52 38 58 SW13 30.17S BARNWELL PTSUNNY 50 39 66 S6 30.20F AIKEN CLOUDY 46 41 81 S10 30.18F MANNING RAIN 52 30 43 W8 30.20R COLUMBIA LGT RAIN 48 42 80 SW9 30.14F SUMTER CLOUDY 49 41 72 S14 30.12F FLORENCE CLOUDY 50 38 63 SW12 30.14F MYRTLE BEACH CLOUDY 57 39 51 SW10G20 30.20S N MYRTLE BEACH PTSUNNY 57 40 52 SW14G23 30.17F $$ GAZ063-065-086>088-099>101-113>116-118-119-134>141-150-301500- ...SOUTHEAST GEORGIA... CITY SKY/WX TMP DP RH WIND PRES REMARKS SAVANNAH ARPT CLOUDY 55 40 56 SW12 30.24R HUNTER AAF PTSUNNY 58 43 58 SW13 30.21S FORT STEWART PTSUNNY 56 43 62 SW10 30.21S STATESBORO PTSUNNY 55 42 63 SW9 30.20F SYLVANIA PTSUNNY 56 43 63 SW9 30.20F CLAXTON CLOUDY 54 43 66 SW8 30.23S ...CSRA...CENTRAL AND FAR SOUTHEAST GEORGIA... CITY SKY/WX TMP DP RH WIND PRES REMARKS THOMSON CLOUDY 50 50 99 S12 30.17F AUGUSTA-BUSH LGT RAIN 48 44 86 SW7 30.18F AUGUSTA-DANIEL LGT RAIN 49 44 83 S10 30.17F SWAINSBORO CLOUDY 54 34 47 NW15G22 30.28R VIDALIA CLOUDY 54 45 71 SW8G16 30.22F EASTMAN FAIR 56 46 68 W5 30.25S HAZLEHURST PTSUNNY 59 45 58 SW7 30.22S ALMA SUNNY 56 44 64 SW7 30.25R WAYCROSS SUNNY 62 46 56 SW10G17 30.26R JESUP CLOUDY 57 46 67 SW7 30.25S BAXLEY FAIR 59 45 58 SW7 30.24S BRUNSWICK MOSUNNY 61 45 55 SW8 30.26F SAINT SIMONS MOSUNNY 58 46 64 SW10 30.26S $$ SCZ027-028-034-036>038-045-046-048>050-GAZ119-141-301500- ...LAKE AND SUPPLEMENTAL COASTAL OBSERVATIONS... STATION/POSITION TIME TEMP WIND PRES WAVE SWELL AIR SEA DIR/SP/G HT/PER HT/PER/DIR (UTC) (F) (DEG/KT/KT) (MB) (FT/S) (FT/S/D) UPR LAKE MARION NOT AVBL WINYAH BAY 1245 53 210/ 8 1021.0 LAKE MURRAY 1300 47 230/ 12/ 17 1020.0F ACE BASIN NERRS NOT AVBL FORT PULASKI 1300 56 59 200/ 10/ 14 1024.0F SAPELO ISLAND 1300 54 200/ 9 1024.0S $$ ANZ835-935-AMZ111-154-330-350-352-354-370-450-454-472-301500- ...C-MAN AND BUOY OBSERVATIONS... STATION/POSITION TIME TEMP WIND PRES WAVE SWELL AIR SEA DIR/SP/G HT/PER HT/PER/DIR (UTC) (F) (DEG/KT/KT) (MB) (FT/S) (FT/S/D) BUOY 41004 1350 62 68 220/ 17/ 21 1022.5F 4/ 4 2/ 9 BUOY 41008 1350 59 60 210/ 16/ 17 1023.8F 3/ 9 2/100/ 9 FOLLY BEACH CMAN 1400 60 220/ 15/ 18 1022.7F CAPERS NEARSHORE NOT AVBL FRIPP NEARSHORE 1300 59 230/ 17/ 19 1022.5F STATION/POSITION TIME TEMP WIND PRES WAVE SWELL AIR SEA DIR/SP/G HT/PER HT/PER/DIR (UTC) (F) (DEG/KT/KT) (MB) (FT/S) (FT/S/D) 5E ST. MARYS GA 1321 60 N/A 2/ 9 FRYING PAN BUOY 1350 62 64 230/ 19/ 25 1022.1F 4/ 5 2/ 90/ 9 BUOY 41025 NOT AVBL CAPE LOOKOUT NC 1400 57 230/ 12/ 16 1020.8F BUOY 41002 1350 56 68 240/ 6/ 10 1026.0R 5/10 5/ 30/10 BUOY 41010 1320 66 75 130/ 6/ 10 1025.0R ST AUGUSTINE FL 1400 63 60 230/ 7/ 9 1026.7R $$

USA.gov is the U.S. government's official web portal to all federal, state and local government web resources and services.